owner,sensor,date,latitude,longitude,vertical_datum,mass_concentration_of_oxygen_in_sea_water,qcFlag 
SCCF RECON,ioos:station:SCCF:13:1,2009-06-01T00:00:00Z,26.5255,-82.0032,2.3,6.16,1111122 
SCCF RECON,ioos:station:SCCF:13:1,2009-06-01T01:00:00Z,26.5255,-82.0032,2.324,6.09,1111122 
SCCF RECON,ioos:station:SCCF:13:1,2009-06-01T02:00:00Z,26.5255,-82.0032,2.34,5.7,1111122 
SCCF RECON,ioos:station:SCCF:13:1,2009-06-01T03:00:00Z,26.5255,-82.0032,2.29,5.6,1111122 
SCCF RECON,ioos:station:SCCF:13:1,2009-06-01T04:00:00Z,26.5255,-82.0032,2.21,5.48,1111122 
SCCF RECON,ioos:station:SCCF:13:1,2009-06-01T05:00:00Z,26.5255,-82.0032,2.16,5.47,1111122 
SCCF RECON,ioos:station:SCCF:13:1,2009-06-01T06:00:00Z,26.5255,-82.0032,2.11,5.42,1111122 
SCCF RECON,ioos:station:SCCF:13:1,2009-06-01T07:00:00Z,26.5255,-82.0032,2.06,5.33,1111122 
SCCF RECON,ioos:station:SCCF:13:1,2009-06-01T08:00:00Z,26.5255,-82.0032,2.07,5.48,1111122 
SCCF RECON,ioos:station:SCCF:13:1,2009-06-01T09:00:00Z,26.5255,-82.0032,2.195,5.47,1111122 
SCCF RECON,ioos:station:SCCF:13:1,2009-06-01T10:00:00Z,26.5255,-82.0032,2.28,4.69,1111122 
SCCF RECON,ioos:station:SCCF:13:1,2009-06-01T11:00:00Z,26.5255,-82.0032,2.32,4.58,1111122 
SCCF RECON,ioos:station:SCCF:13:1,2009-06-01T12:00:00Z,26.5255,-82.0032,2.372,4.7,1111122 
SCCF RECON,ioos:station:SCCF:13:1,2009-06-01T13:00:00Z,26.5255,-82.0032,2.43,4.91,1111122 
SCCF RECON,ioos:station:SCCF:13:1,2009-06-01T14:00:00Z,26.5255,-82.0032,2.44,5.02,1111122 
SCCF RECON,ioos:station:SCCF:13:1,2009-06-01T15:00:00Z,26.5255,-82.0032,2.41,5.24,1111122 
SCCF RECON,ioos:station:SCCF:13:1,2009-06-01T17:00:00Z,26.5255,-82.0032,2.25,5.93,1111122 
SCCF RECON,ioos:station:SCCF:13:1,2009-06-01T18:00:00Z,26.5255,-82.0032,2.17,6.03,1111122 
SCCF RECON,ioos:station:SCCF:13:1,2009-06-01T19:00:00Z,26.5255,-82.0032,2.105,6.28,1111122 
SCCF RECON,ioos:station:SCCF:13:1,2009-06-01T20:00:00Z,26.5255,-82.0032,2.056,6.28,1111122 
SCCF RECON,ioos:station:SCCF:13:1,2009-06-01T21:00:00Z,26.5255,-82.0032,2.054,6.46,1111122 
SCCF RECON,ioos:station:SCCF:13:1,2009-06-01T22:00:00Z,26.5255,-82.0032,2.121,6.58,1111122 
SCCF RECON,ioos:station:SCCF:13:1,2009-06-01T23:00:00Z,26.5255,-82.0032,2.2,6.06,1111122 
SCCF RECON,ioos:station:SCCF:13:1,2009-06-02T00:00:00Z,26.5255,-82.0032,2.246,6.44,1111122 
SCCF RECON,ioos:station:SCCF:13:1,2009-06-02T01:00:00Z,26.5255,-82.0032,2.286,6.38,1111122 
SCCF RECON,ioos:station:SCCF:13:1,2009-06-02T02:00:00Z,26.5255,-82.0032,2.336,6.44,1111122 
SCCF RECON,ioos:station:SCCF:13:1,2009-06-02T03:00:00Z,26.5255,-82.0032,2.33,6.08,1111122 
SCCF RECON,ioos:station:SCCF:13:1,2009-06-02T04:00:00Z,26.5255,-82.0032,2.29,6.04,1111122 
SCCF RECON,ioos:station:SCCF:13:1,2009-06-02T05:00:00Z,26.5255,-82.0032,2.27,5.84,1111122 
SCCF RECON,ioos:station:SCCF:13:1,2009-06-02T06:00:00Z,26.5255,-82.0032,2.2,5.51,1111122 
SCCF RECON,ioos:station:SCCF:13:1,2009-06-02T07:00:00Z,26.5255,-82.0032,2.15,5.19,1111122 
SCCF RECON,ioos:station:SCCF:13:1,2009-06-02T08:00:00Z,26.5255,-82.0032,2.14,5.26,1111122 
SCCF RECON,ioos:station:SCCF:13:1,2009-06-02T09:00:00Z,26.5255,-82.0032,2.16,5.22,1111122 
SCCF RECON,ioos:station:SCCF:13:1,2009-06-02T10:00:00Z,26.5255,-82.0032,2.24,5.05,1111122 
SCCF RECON,ioos:station:SCCF:13:1,2009-06-02T11:00:00Z,26.5255,-82.0032,2.34,4.52,1111122 
SCCF RECON,ioos:station:SCCF:13:1,2009-06-02T12:00:00Z,26.5255,-82.0032,2.41,4.87,1111122 
SCCF RECON,ioos:station:SCCF:13:1,2009-06-02T13:00:00Z,26.5255,-82.0032,2.46,5.4,1111122 
SCCF RECON,ioos:station:SCCF:13:1,2009-06-02T14:00:00Z,26.5255,-82.0032,2.498,5.57,1111122 
SCCF RECON,ioos:station:SCCF:13:1,2009-06-02T15:00:00Z,26.5255,-82.0032,2.514,5.23,1111122 
SCCF RECON,ioos:station:SCCF:13:1,2009-06-02T16:00:00Z,26.5255,-82.0032,2.48,5.53,1111122 
SCCF RECON,ioos:station:SCCF:13:1,2009-06-02T17:00:00Z,26.5255,-82.0032,2.387,5.52,1111122 
SCCF RECON,ioos:station:SCCF:13:1,2009-06-02T18:00:00Z,26.5255,-82.0032,2.29,5.9,1111122 
SCCF RECON,ioos:station:SCCF:13:1,2009-06-02T19:00:00Z,26.5255,-82.0032,2.211,6.21,1111122 
SCCF RECON,ioos:station:SCCF:13:1,2009-06-02T20:00:00Z,26.5255,-82.0032,2.131,6.18,1111122 
SCCF RECON,ioos:station:SCCF:13:1,2009-06-02T21:00:00Z,26.5255,-82.0032,2.067,5.79,1111122 
SCCF RECON,ioos:station:SCCF:13:1,2009-06-02T22:00:00Z,26.5255,-82.0032,2.05,5.9,1111122 
SCCF RECON,ioos:station:SCCF:13:1,2009-06-02T23:00:00Z,26.5255,-82.0032,2.108,5.89,1111122 
SCCF RECON,ioos:station:SCCF:13:1,2009-06-03T00:00:00Z,26.5255,-82.0032,2.22,5.95,1111122 
SCCF RECON,ioos:station:SCCF:13:1,2009-06-03T01:00:00Z,26.5255,-82.0032,2.21,5.3,1111122 
SCCF RECON,ioos:station:SCCF:13:1,2009-06-03T02:00:00Z,26.5255,-82.0032,2.26,4.86,1111122 
SCCF RECON,ioos:station:SCCF:13:1,2009-06-03T03:00:00Z,26.5255,-82.0032,2.32,5.44,1111122 
SCCF RECON,ioos:station:SCCF:13:1,2009-06-03T04:00:00Z,26.5255,-82.0032,2.33,5.64,1111122 
SCCF RECON,ioos:station:SCCF:13:1,2009-06-03T05:00:00Z,26.5255,-82.0032,2.28,5.62,1111122 
SCCF RECON,ioos:station:SCCF:13:1,2009-06-03T06:00:00Z,26.5255,-82.0032,2.26,5.58,1111122 
SCCF RECON,ioos:station:SCCF:13:1,2009-06-03T07:00:00Z,26.5255,-82.0032,2.22,5.67,1111122 
SCCF RECON,ioos:station:SCCF:13:1,2009-06-03T08:00:00Z,26.5255,-82.0032,2.176,5.05,1111122 
SCCF RECON,ioos:station:SCCF:13:1,2009-06-03T09:00:00Z,26.5255,-82.0032,2.16,4.75,1111122 
SCCF RECON,ioos:station:SCCF:13:1,2009-06-03T10:00:00Z,26.5255,-82.0032,2.21,4.94,1111122 
SCCF RECON,ioos:station:SCCF:13:1,2009-06-03T11:00:00Z,26.5255,-82.0032,2.29,3.74,1111122 
SCCF RECON,ioos:station:SCCF:13:1,2009-06-03T12:00:00Z,26.5255,-82.0032,2.36,4.6,1111122 
SCCF RECON,ioos:station:SCCF:13:1,2009-06-03T13:00:00Z,26.5255,-82.0032,2.42,5.12,1111122 
SCCF RECON,ioos:station:SCCF:13:1,2009-06-03T14:00:00Z,26.5255,-82.0032,2.47,5.71,1111122 
SCCF RECON,ioos:station:SCCF:13:1,2009-06-03T15:00:00Z,26.5255,-82.0032,2.51,5.56,1111122 
SCCF RECON,ioos:station:SCCF:13:1,2009-06-03T16:00:00Z,26.5255,-82.0032,2.51,5.22,1111122 
SCCF RECON,ioos:station:SCCF:13:1,2009-06-03T17:00:00Z,26.5255,-82.0032,2.418,5.29,1111122 
SCCF RECON,ioos:station:SCCF:13:1,2009-06-03T18:00:00Z,26.5255,-82.0032,2.31,5.43,1111122 
SCCF RECON,ioos:station:SCCF:13:1,2009-06-03T19:00:00Z,26.5255,-82.0032,2.214,6.06,1111122 
SCCF RECON,ioos:station:SCCF:13:1,2009-06-03T20:00:00Z,26.5255,-82.0032,2.135,6.37,1111122 
SCCF RECON,ioos:station:SCCF:13:1,2009-06-03T21:00:00Z,26.5255,-82.0032,2.06,6.17,1111122 
SCCF RECON,ioos:station:SCCF:13:1,2009-06-03T22:00:00Z,26.5255,-82.0032,2.01,6.18,1111122 
SCCF RECON,ioos:station:SCCF:13:1,2009-06-03T23:00:00Z,26.5255,-82.0032,1.99,6.07,1111122 
SCCF RECON,ioos:station:SCCF:13:1,2009-06-04T00:00:00Z,26.5255,-82.0032,2.1,5.98,1111122 
SCCF RECON,ioos:station:SCCF:13:1,2009-06-04T01:00:00Z,26.5255,-82.0032,2.19,5.83,1111122 
SCCF RECON,ioos:station:SCCF:13:1,2009-06-04T02:00:00Z,26.5255,-82.0032,2.24,5.43,1111122 
SCCF RECON,ioos:station:SCCF:13:1,2009-06-04T03:00:00Z,26.5255,-82.0032,2.28,5.44,1111122 
SCCF RECON,ioos:station:SCCF:13:1,2009-06-04T04:00:00Z,26.5255,-82.0032,2.341,5.92,1111122 
SCCF RECON,ioos:station:SCCF:13:1,2009-06-04T05:00:00Z,26.5255,-82.0032,2.344,6.15,1111122 
SCCF RECON,ioos:station:SCCF:13:1,2009-06-04T06:00:00Z,26.5255,-82.0032,2.33,6.11,1111122 
SCCF RECON,ioos:station:SCCF:13:1,2009-06-04T07:00:00Z,26.5255,-82.0032,2.31,5.89,1111122 
SCCF RECON,ioos:station:SCCF:13:1,2009-06-04T08:00:00Z,26.5255,-82.0032,2.29,5.99,1111122 
SCCF RECON,ioos:station:SCCF:13:1,2009-06-04T09:00:00Z,26.5255,-82.0032,2.25,5.89,1111122 
SCCF RECON,ioos:station:SCCF:13:1,2009-06-04T10:00:00Z,26.5255,-82.0032,2.24,5.3,1111122 
SCCF RECON,ioos:station:SCCF:13:1,2009-06-04T11:00:00Z,26.5255,-82.0032,2.31,4.75,1111122 
SCCF RECON,ioos:station:SCCF:13:1,2009-06-04T12:00:00Z,26.5255,-82.0032,2.4,4.5,1111122 
SCCF RECON,ioos:station:SCCF:13:1,2009-06-04T13:00:00Z,26.5255,-82.0032,2.47,5.14,1111122 
SCCF RECON,ioos:station:SCCF:13:1,2009-06-04T14:00:00Z,26.5255,-82.0032,2.519,5.61,1111122 
SCCF RECON,ioos:station:SCCF:13:1,2009-06-04T15:00:00Z,26.5255,-82.0032,2.544,5.93,1111122 
SCCF RECON,ioos:station:SCCF:13:1,2009-06-04T16:00:00Z,26.5255,-82.0032,2.56,5.56,1111122 
SCCF RECON,ioos:station:SCCF:13:1,2009-06-04T17:00:00Z,26.5255,-82.0032,2.53,5.83,1111122 
SCCF RECON,ioos:station:SCCF:13:1,2009-06-04T18:00:00Z,26.5255,-82.0032,2.43,6.0,1111122 
SCCF RECON,ioos:station:SCCF:13:1,2009-06-04T19:00:00Z,26.5255,-82.0032,2.33,6.2,1111122 
SCCF RECON,ioos:station:SCCF:13:1,2009-06-04T20:00:00Z,26.5255,-82.0032,2.231,6.61,1111122 
SCCF RECON,ioos:station:SCCF:13:1,2009-06-04T21:00:00Z,26.5255,-82.0032,2.148,6.64,1111122 
SCCF RECON,ioos:station:SCCF:13:1,2009-06-04T22:00:00Z,26.5255,-82.0032,2.06,6.51,1111122 
SCCF RECON,ioos:station:SCCF:13:1,2009-06-04T23:00:00Z,26.5255,-82.0032,2.0,6.44,1111122 
SCCF RECON,ioos:station:SCCF:13:1,2009-06-05T00:00:00Z,26.5255,-82.0032,1.99,6.25,1111122 
SCCF RECON,ioos:station:SCCF:13:1,2009-06-05T01:00:00Z,26.5255,-82.0032,2.102,5.93,1111122 
SCCF RECON,ioos:station:SCCF:13:1,2009-06-05T02:00:00Z,26.5255,-82.0032,2.2,5.26,1111122 
SCCF RECON,ioos:station:SCCF:13:1,2009-06-05T03:00:00Z,26.5255,-82.0032,2.24,4.85,1111122 
SCCF RECON,ioos:station:SCCF:13:1,2009-06-05T04:00:00Z,26.5255,-82.0032,2.3,5.5,1111122 
SCCF RECON,ioos:station:SCCF:13:1,2009-06-05T05:00:00Z,26.5255,-82.0032,2.34,5.82,1111122 
SCCF RECON,ioos:station:SCCF:13:1,2009-06-05T06:00:00Z,26.5255,-82.0032,2.35,5.76,1111122 
SCCF RECON,ioos:station:SCCF:13:1,2009-06-05T07:00:00Z,26.5255,-82.0032,2.36,5.64,1111122 
SCCF RECON,ioos:station:SCCF:13:1,2009-06-05T08:00:00Z,26.5255,-82.0032,2.31,5.73,1111122 
SCCF RECON,ioos:station:SCCF:13:1,2009-06-05T09:00:00Z,26.5255,-82.0032,2.31,5.57,1111122 
SCCF RECON,ioos:station:SCCF:13:1,2009-06-05T10:00:00Z,26.5255,-82.0032,2.27,5.45,1111122 
SCCF RECON,ioos:station:SCCF:13:1,2009-06-05T11:00:00Z,26.5255,-82.0032,2.34,5.19,1111122 
SCCF RECON,ioos:station:SCCF:13:1,2009-06-05T12:00:00Z,26.5255,-82.0032,2.43,4.9,1111122 
SCCF RECON,ioos:station:SCCF:13:1,2009-06-05T13:00:00Z,26.5255,-82.0032,2.49,5.17,1111122 
SCCF RECON,ioos:station:SCCF:13:1,2009-06-05T14:00:00Z,26.5255,-82.0032,2.539,5.52,1111122 
SCCF RECON,ioos:station:SCCF:13:1,2009-06-05T15:00:00Z,26.5255,-82.0032,2.567,5.82,1111122 
SCCF RECON,ioos:station:SCCF:13:1,2009-06-05T16:00:00Z,26.5255,-82.0032,2.59,5.84,1111122 
SCCF RECON,ioos:station:SCCF:13:1,2009-06-05T17:00:00Z,26.5255,-82.0032,2.58,5.99,1111122 
SCCF RECON,ioos:station:SCCF:13:1,2009-06-05T18:00:00Z,26.5255,-82.0032,2.509,5.87,1111122 
SCCF RECON,ioos:station:SCCF:13:1,2009-06-05T19:00:00Z,26.5255,-82.0032,2.428,6.16,1111122 
SCCF RECON,ioos:station:SCCF:13:1,2009-06-05T20:00:00Z,26.5255,-82.0032,2.33,6.59,1111122 
SCCF RECON,ioos:station:SCCF:13:1,2009-06-05T21:00:00Z,26.5255,-82.0032,2.269,6.72,1111122 
SCCF RECON,ioos:station:SCCF:13:1,2009-06-05T22:00:00Z,26.5255,-82.0032,2.16,6.37,1111122 
SCCF RECON,ioos:station:SCCF:13:1,2009-06-05T23:00:00Z,26.5255,-82.0032,2.083,6.06,1111122 
SCCF RECON,ioos:station:SCCF:13:1,2009-06-06T00:00:00Z,26.5255,-82.0032,2.01,5.93,1111122 
SCCF RECON,ioos:station:SCCF:13:1,2009-06-06T01:00:00Z,26.5255,-82.0032,2.001,5.78,1111122 
SCCF RECON,ioos:station:SCCF:13:1,2009-06-06T02:00:00Z,26.5255,-82.0032,2.15,5.7,1111122 
SCCF RECON,ioos:station:SCCF:13:1,2009-06-06T03:00:00Z,26.5255,-82.0032,2.211,5.66,1111122 
SCCF RECON,ioos:station:SCCF:13:1,2009-06-06T04:00:00Z,26.5255,-82.0032,2.27,5.53,1111122 
SCCF RECON,ioos:station:SCCF:13:1,2009-06-06T05:00:00Z,26.5255,-82.0032,2.3,4.82,1111122 
SCCF RECON,ioos:station:SCCF:13:1,2009-06-06T06:00:00Z,26.5255,-82.0032,2.32,5.14,1111122 
SCCF RECON,ioos:station:SCCF:13:1,2009-06-06T07:00:00Z,26.5255,-82.0032,2.33,5.31,1111122 
SCCF RECON,ioos:station:SCCF:13:1,2009-06-06T08:00:00Z,26.5255,-82.0032,2.36,5.17,1111122 
SCCF RECON,ioos:station:SCCF:13:1,2009-06-06T09:00:00Z,26.5255,-82.0032,2.37,5.26,1111122 
SCCF RECON,ioos:station:SCCF:13:1,2009-06-06T10:00:00Z,26.5255,-82.0032,2.4,5.13,1111122 
SCCF RECON,ioos:station:SCCF:13:1,2009-06-06T11:00:00Z,26.5255,-82.0032,2.41,5.18,1111122 
SCCF RECON,ioos:station:SCCF:13:1,2009-06-06T12:00:00Z,26.5255,-82.0032,2.42,4.92,1111122 
SCCF RECON,ioos:station:SCCF:13:1,2009-06-06T13:00:00Z,26.5255,-82.0032,2.47,4.83,1111122 
SCCF RECON,ioos:station:SCCF:13:1,2009-06-06T14:00:00Z,26.5255,-82.0032,2.562,5.21,1111122 
SCCF RECON,ioos:station:SCCF:13:1,2009-06-06T15:00:00Z,26.5255,-82.0032,2.615,5.39,1111122 
SCCF RECON,ioos:station:SCCF:13:1,2009-06-06T16:00:00Z,26.5255,-82.0032,2.64,5.79,1111122 
SCCF RECON,ioos:station:SCCF:13:1,2009-06-06T17:00:00Z,26.5255,-82.0032,2.652,5.82,1111122 
SCCF RECON,ioos:station:SCCF:13:1,2009-06-06T18:00:00Z,26.5255,-82.0032,2.614,5.94,1111122 
SCCF RECON,ioos:station:SCCF:13:1,2009-06-06T19:00:00Z,26.5255,-82.0032,2.539,5.9,1111122 
SCCF RECON,ioos:station:SCCF:13:1,2009-06-06T20:00:00Z,26.5255,-82.0032,2.437,6.18,1111122 
SCCF RECON,ioos:station:SCCF:13:1,2009-06-06T21:00:00Z,26.5255,-82.0032,2.339,6.36,1111122 
SCCF RECON,ioos:station:SCCF:13:1,2009-06-06T22:00:00Z,26.5255,-82.0032,2.237,6.25,1111122 
SCCF RECON,ioos:station:SCCF:13:1,2009-06-06T23:00:00Z,26.5255,-82.0032,2.15,5.97,1111122 
SCCF RECON,ioos:station:SCCF:13:1,2009-06-07T00:00:00Z,26.5255,-82.0032,2.077,5.81,1111122 
SCCF RECON,ioos:station:SCCF:13:1,2009-06-07T01:00:00Z,26.5255,-82.0032,2.03,5.66,1111122 
SCCF RECON,ioos:station:SCCF:13:1,2009-06-07T02:00:00Z,26.5255,-82.0032,2.05,5.58,1111122 
SCCF RECON,ioos:station:SCCF:13:1,2009-06-07T03:00:00Z,26.5255,-82.0032,2.13,5.67,1111122 
SCCF RECON,ioos:station:SCCF:13:1,2009-06-07T04:00:00Z,26.5255,-82.0032,2.22,5.75,1111122 
SCCF RECON,ioos:station:SCCF:13:1,2009-06-07T05:00:00Z,26.5255,-82.0032,2.29,5.48,1111122 
SCCF RECON,ioos:station:SCCF:13:1,2009-06-07T06:00:00Z,26.5255,-82.0032,2.32,4.74,1111122 
SCCF RECON,ioos:station:SCCF:13:1,2009-06-07T07:00:00Z,26.5255,-82.0032,2.32,4.83,1111122 
SCCF RECON,ioos:station:SCCF:13:1,2009-06-07T08:00:00Z,26.5255,-82.0032,2.33,4.87,1111122 
SCCF RECON,ioos:station:SCCF:13:1,2009-06-07T09:00:00Z,26.5255,-82.0032,2.36,4.85,1111122 
SCCF RECON,ioos:station:SCCF:13:1,2009-06-07T10:00:00Z,26.5255,-82.0032,2.312,4.94,1111122 
SCCF RECON,ioos:station:SCCF:13:1,2009-06-07T11:00:00Z,26.5255,-82.0032,2.276,4.6,1111122 
SCCF RECON,ioos:station:SCCF:13:1,2009-06-07T12:00:00Z,26.5255,-82.0032,2.27,4.53,1111122 
SCCF RECON,ioos:station:SCCF:13:1,2009-06-07T13:00:00Z,26.5255,-82.0032,2.34,4.26,1111122 
SCCF RECON,ioos:station:SCCF:13:1,2009-06-07T14:00:00Z,26.5255,-82.0032,2.45,4.06,1111122 
SCCF RECON,ioos:station:SCCF:13:1,2009-06-07T15:00:00Z,26.5255,-82.0032,2.54,5.12,1111122 
SCCF RECON,ioos:station:SCCF:13:1,2009-06-07T16:00:00Z,26.5255,-82.0032,2.59,5.72,1111122 
SCCF RECON,ioos:station:SCCF:13:1,2009-06-07T17:00:00Z,26.5255,-82.0032,2.6,5.52,1111122 
SCCF RECON,ioos:station:SCCF:13:1,2009-06-07T18:00:00Z,26.5255,-82.0032,2.661,5.8,1111122 
SCCF RECON,ioos:station:SCCF:13:1,2009-06-07T19:00:00Z,26.5255,-82.0032,2.601,6.08,1111122 
SCCF RECON,ioos:station:SCCF:13:1,2009-06-07T20:00:00Z,26.5255,-82.0032,2.489,6.1,1111122 
SCCF RECON,ioos:station:SCCF:13:1,2009-06-07T21:00:00Z,26.5255,-82.0032,2.37,6.21,1111122 
SCCF RECON,ioos:station:SCCF:13:1,2009-06-07T22:00:00Z,26.5255,-82.0032,2.283,6.2,1111122 
SCCF RECON,ioos:station:SCCF:13:1,2009-06-07T23:00:00Z,26.5255,-82.0032,2.18,6.14,1111122 
SCCF RECON,ioos:station:SCCF:13:1,2009-06-08T00:00:00Z,26.5255,-82.0032,2.09,6.02,1111122 
SCCF RECON,ioos:station:SCCF:13:1,2009-06-08T01:00:00Z,26.5255,-82.0032,2.02,5.81,1111122 
SCCF RECON,ioos:station:SCCF:13:1,2009-06-08T02:00:00Z,26.5255,-82.0032,2.003,5.69,1111122 
SCCF RECON,ioos:station:SCCF:13:1,2009-06-08T03:00:00Z,26.5255,-82.0032,2.11,5.66,1111122 
SCCF RECON,ioos:station:SCCF:13:1,2009-06-08T04:00:00Z,26.5255,-82.0032,2.192,5.68,1111122 
SCCF RECON,ioos:station:SCCF:13:1,2009-06-08T05:00:00Z,26.5255,-82.0032,2.24,5.29,1111122 
SCCF RECON,ioos:station:SCCF:13:1,2009-06-08T06:00:00Z,26.5255,-82.0032,2.3,4.82,1111122 
SCCF RECON,ioos:station:SCCF:13:1,2009-06-08T07:00:00Z,26.5255,-82.0032,2.34,5.0,1111122 
SCCF RECON,ioos:station:SCCF:13:1,2009-06-08T08:00:00Z,26.5255,-82.0032,2.321,5.05,1111122 
SCCF RECON,ioos:station:SCCF:13:1,2009-06-08T09:00:00Z,26.5255,-82.0032,2.304,4.91,1111122 
SCCF RECON,ioos:station:SCCF:13:1,2009-06-08T10:00:00Z,26.5255,-82.0032,2.31,4.64,1111122 
SCCF RECON,ioos:station:SCCF:13:1,2009-06-08T11:00:00Z,26.5255,-82.0032,2.31,4.58,1111122 
SCCF RECON,ioos:station:SCCF:13:1,2009-06-08T12:00:00Z,26.5255,-82.0032,2.301,4.27,1111122 
SCCF RECON,ioos:station:SCCF:13:1,2009-06-08T13:00:00Z,26.5255,-82.0032,2.35,4.16,1111122 
SCCF RECON,ioos:station:SCCF:13:1,2009-06-08T14:00:00Z,26.5255,-82.0032,2.412,4.39,1111122 
SCCF RECON,ioos:station:SCCF:13:1,2009-06-08T15:00:00Z,26.5255,-82.0032,2.471,5.38,1111122 
SCCF RECON,ioos:station:SCCF:13:1,2009-06-08T16:00:00Z,26.5255,-82.0032,2.55,6.02,1111122 
SCCF RECON,ioos:station:SCCF:13:1,2009-06-08T17:00:00Z,26.5255,-82.0032,2.588,5.69,1111122 
SCCF RECON,ioos:station:SCCF:13:1,2009-06-08T18:00:00Z,26.5255,-82.0032,2.614,5.77,1111122 
SCCF RECON,ioos:station:SCCF:13:1,2009-06-08T19:00:00Z,26.5255,-82.0032,2.57,6.11,1111122 
SCCF RECON,ioos:station:SCCF:13:1,2009-06-08T20:00:00Z,26.5255,-82.0032,2.47,6.07,1111122 
SCCF RECON,ioos:station:SCCF:13:1,2009-06-08T21:00:00Z,26.5255,-82.0032,2.36,6.3,1111122 
SCCF RECON,ioos:station:SCCF:13:1,2009-06-08T22:00:00Z,26.5255,-82.0032,2.276,6.51,1111122 
SCCF RECON,ioos:station:SCCF:13:1,2009-06-08T23:00:00Z,26.5255,-82.0032,2.194,6.64,1111122 
SCCF RECON,ioos:station:SCCF:13:1,2009-06-09T00:00:00Z,26.5255,-82.0032,2.119,6.49,1111122 
SCCF RECON,ioos:station:SCCF:13:1,2009-06-09T01:00:00Z,26.5255,-82.0032,2.02,6.29,1111122 
SCCF RECON,ioos:station:SCCF:13:1,2009-06-09T02:00:00Z,26.5255,-82.0032,1.97,5.98,1111122 
SCCF RECON,ioos:station:SCCF:13:1,2009-06-09T03:00:00Z,26.5255,-82.0032,2.0,5.95,1111122 
SCCF RECON,ioos:station:SCCF:13:1,2009-06-09T04:00:00Z,26.5255,-82.0032,2.11,6.02,1111122 
SCCF RECON,ioos:station:SCCF:13:1,2009-06-09T05:00:00Z,26.5255,-82.0032,2.18,5.81,1111122 
SCCF RECON,ioos:station:SCCF:13:1,2009-06-09T06:00:00Z,26.5255,-82.0032,2.24,4.87,1111122 
SCCF RECON,ioos:station:SCCF:13:1,2009-06-09T07:00:00Z,26.5255,-82.0032,2.28,5.17,1111122 
SCCF RECON,ioos:station:SCCF:13:1,2009-06-09T08:00:00Z,26.5255,-82.0032,2.33,5.27,1111122 
SCCF RECON,ioos:station:SCCF:13:1,2009-06-09T09:00:00Z,26.5255,-82.0032,2.34,5.38,1111122 
SCCF RECON,ioos:station:SCCF:13:1,2009-06-09T10:00:00Z,26.5255,-82.0032,2.33,5.34,1111122 
SCCF RECON,ioos:station:SCCF:13:1,2009-06-09T11:00:00Z,26.5255,-82.0032,2.31,5.18,1111122 
SCCF RECON,ioos:station:SCCF:13:1,2009-06-09T12:00:00Z,26.5255,-82.0032,2.32,4.99,1111122 
SCCF RECON,ioos:station:SCCF:13:1,2009-06-09T13:00:00Z,26.5255,-82.0032,2.33,4.84,1111122 
SCCF RECON,ioos:station:SCCF:13:1,2009-06-09T14:00:00Z,26.5255,-82.0032,2.37,4.02,1111122 
SCCF RECON,ioos:station:SCCF:13:1,2009-06-09T15:00:00Z,26.5255,-82.0032,2.46,4.72,1111122 
SCCF RECON,ioos:station:SCCF:13:1,2009-06-09T16:00:00Z,26.5255,-82.0032,2.538,5.89,1111122 
SCCF RECON,ioos:station:SCCF:13:1,2009-06-09T17:00:00Z,26.5255,-82.0032,2.58,6.59,1111122 
SCCF RECON,ioos:station:SCCF:13:1,2009-06-09T18:00:00Z,26.5255,-82.0032,2.61,6.4,1111122 
SCCF RECON,ioos:station:SCCF:13:1,2009-06-09T19:00:00Z,26.5255,-82.0032,2.59,6.53,1111122 
SCCF RECON,ioos:station:SCCF:13:1,2009-06-09T20:00:00Z,26.5255,-82.0032,2.5,6.67,1111122 
SCCF RECON,ioos:station:SCCF:13:1,2009-06-09T21:00:00Z,26.5255,-82.0032,2.393,6.94,1111122 
SCCF RECON,ioos:station:SCCF:13:1,2009-06-09T22:00:00Z,26.5255,-82.0032,2.307,6.78,1111122 
SCCF RECON,ioos:station:SCCF:13:1,2009-06-09T23:00:00Z,26.5255,-82.0032,2.223,6.61,1111122 
SCCF RECON,ioos:station:SCCF:13:1,2009-06-10T00:00:00Z,26.5255,-82.0032,2.14,6.31,1111122 
SCCF RECON,ioos:station:SCCF:13:1,2009-06-10T01:00:00Z,26.5255,-82.0032,2.057,6.05,1111122 
SCCF RECON,ioos:station:SCCF:13:1,2009-06-10T02:00:00Z,26.5255,-82.0032,1.99,5.82,1111122 
SCCF RECON,ioos:station:SCCF:13:1,2009-06-10T03:00:00Z,26.5255,-82.0032,1.97,5.74,1111122 
SCCF RECON,ioos:station:SCCF:13:1,2009-06-10T04:00:00Z,26.5255,-82.0032,2.014,5.82,1111122 
SCCF RECON,ioos:station:SCCF:13:1,2009-06-10T05:00:00Z,26.5255,-82.0032,2.102,5.88,1111122 
SCCF RECON,ioos:station:SCCF:13:1,2009-06-10T06:00:00Z,26.5255,-82.0032,2.18,5.71,1111122 
SCCF RECON,ioos:station:SCCF:13:1,2009-06-10T07:00:00Z,26.5255,-82.0032,2.243,4.82,1111122 
SCCF RECON,ioos:station:SCCF:13:1,2009-06-10T08:00:00Z,26.5255,-82.0032,2.28,4.98,1111122 
SCCF RECON,ioos:station:SCCF:13:1,2009-06-10T09:00:00Z,26.5255,-82.0032,2.29,4.99,1111122 
SCCF RECON,ioos:station:SCCF:13:1,2009-06-10T10:00:00Z,26.5255,-82.0032,2.29,5.08,1111122 
SCCF RECON,ioos:station:SCCF:13:1,2009-06-10T11:00:00Z,26.5255,-82.0032,2.28,5.09,1111122 
SCCF RECON,ioos:station:SCCF:13:1,2009-06-10T12:00:00Z,26.5255,-82.0032,2.262,4.87,1111122 
SCCF RECON,ioos:station:SCCF:13:1,2009-06-10T13:00:00Z,26.5255,-82.0032,2.25,5.02,1111122 
SCCF RECON,ioos:station:SCCF:13:1,2009-06-10T14:00:00Z,26.5255,-82.0032,2.274,4.8,1111122 
SCCF RECON,ioos:station:SCCF:13:1,2009-06-10T15:00:00Z,26.5255,-82.0032,2.341,4.03,1111122 
SCCF RECON,ioos:station:SCCF:13:1,2009-06-10T16:00:00Z,26.5255,-82.0032,2.421,5.74,1111122 
SCCF RECON,ioos:station:SCCF:13:1,2009-06-10T17:00:00Z,26.5255,-82.0032,2.49,6.26,1111122 
SCCF RECON,ioos:station:SCCF:13:1,2009-06-10T18:00:00Z,26.5255,-82.0032,2.531,5.72,1111122 
SCCF RECON,ioos:station:SCCF:13:1,2009-06-10T19:00:00Z,26.5255,-82.0032,2.533,5.72,1111122 
SCCF RECON,ioos:station:SCCF:13:1,2009-06-10T20:00:00Z,26.5255,-82.0032,2.519,6.08,1111122 
SCCF RECON,ioos:station:SCCF:13:1,2009-06-10T21:00:00Z,26.5255,-82.0032,2.438,6.11,1111122 
SCCF RECON,ioos:station:SCCF:13:1,2009-06-10T22:00:00Z,26.5255,-82.0032,2.35,6.25,1111122 
SCCF RECON,ioos:station:SCCF:13:1,2009-06-10T23:00:00Z,26.5255,-82.0032,2.27,6.0,1111122 
SCCF RECON,ioos:station:SCCF:13:1,2009-06-11T00:00:00Z,26.5255,-82.0032,2.207,5.82,1111122 
SCCF RECON,ioos:station:SCCF:13:1,2009-06-11T01:00:00Z,26.5255,-82.0032,2.12,5.8,1111122 
SCCF RECON,ioos:station:SCCF:13:1,2009-06-11T02:00:00Z,26.5255,-82.0032,2.041,5.77,1111122 
SCCF RECON,ioos:station:SCCF:13:1,2009-06-11T03:00:00Z,26.5255,-82.0032,1.99,5.65,1111122 
SCCF RECON,ioos:station:SCCF:13:1,2009-06-11T04:00:00Z,26.5255,-82.0032,1.983,5.47,1111122 
SCCF RECON,ioos:station:SCCF:13:1,2009-06-11T05:00:00Z,26.5255,-82.0032,2.08,5.64,1111122 
SCCF RECON,ioos:station:SCCF:13:1,2009-06-11T06:00:00Z,26.5255,-82.0032,2.176,5.53,1111122 
SCCF RECON,ioos:station:SCCF:13:1,2009-06-11T07:00:00Z,26.5255,-82.0032,2.22,4.53,1111122 
SCCF RECON,ioos:station:SCCF:13:1,2009-06-11T08:00:00Z,26.5255,-82.0032,2.27,4.65,1111122 
SCCF RECON,ioos:station:SCCF:13:1,2009-06-11T09:00:00Z,26.5255,-82.0032,2.314,4.71,1111122 
SCCF RECON,ioos:station:SCCF:13:1,2009-06-11T10:00:00Z,26.5255,-82.0032,2.34,4.59,1111122 
SCCF RECON,ioos:station:SCCF:13:1,2009-06-11T11:00:00Z,26.5255,-82.0032,2.34,4.58,1111122 
SCCF RECON,ioos:station:SCCF:13:1,2009-06-11T12:00:00Z,26.5255,-82.0032,2.33,4.65,1111122 
SCCF RECON,ioos:station:SCCF:13:1,2009-06-11T13:00:00Z,26.5255,-82.0032,2.3,4.37,1111122 
SCCF RECON,ioos:station:SCCF:13:1,2009-06-11T14:00:00Z,26.5255,-82.0032,2.301,4.63,1111122 
SCCF RECON,ioos:station:SCCF:13:1,2009-06-11T15:00:00Z,26.5255,-82.0032,2.33,4.09,1111122 
SCCF RECON,ioos:station:SCCF:13:1,2009-06-11T16:00:00Z,26.5255,-82.0032,2.39,4.04,1111122 
SCCF RECON,ioos:station:SCCF:13:1,2009-06-11T17:00:00Z,26.5255,-82.0032,2.45,5.53,1111122 
SCCF RECON,ioos:station:SCCF:13:1,2009-06-11T18:00:00Z,26.5255,-82.0032,2.52,6.33,1111122 
SCCF RECON,ioos:station:SCCF:13:1,2009-06-11T19:00:00Z,26.5255,-82.0032,2.55,6.29,1111122 
SCCF RECON,ioos:station:SCCF:13:1,2009-06-11T20:00:00Z,26.5255,-82.0032,2.54,6.17,1111122 
SCCF RECON,ioos:station:SCCF:13:1,2009-06-11T21:00:00Z,26.5255,-82.0032,2.485,6.64,1111122 
SCCF RECON,ioos:station:SCCF:13:1,2009-06-11T22:00:00Z,26.5255,-82.0032,2.408,6.48,1111122 